Regional Weather Roundup
Issued by NWS Wakefield, VA

Home | Current Version | Previous Version | Graphics & Text | Print | Product List | Glossary On
Versions: 1 2 3 4 5 6 7 8 9 10 11 12 13 14 15 16 17 18 19 20 21 22 23 24 25 26 27 28 29 30 31 32 33 34 35 36 37 38 39 40 41 42 43 44 45 46 47 48 49 50
000
ASUS41 KAKQ 310810
RWRAKQ

REGIONAL WEATHER ROUNDUP
NATIONAL WEATHER SERVICE WAKEFIELD VA
400 AM EDT THU JUL 31 2014

Note: "fair" indicates few or no clouds below 12,000 feet with no
significant weather and/or obstructions to visibility. * = Denotes
station may not report precipitation (e.g., rain,snow,etc.),
thunder or fog.

VAZ042-051-052>054-056-310900-
NORTHERN VIRGINIA

CITY           SKY/WX    TMP DP  RH WIND       PRES   REMARKS
WASH NATIONAL  CLEAR     68  59  73 SW3       30.07S
DULLES         CLEAR     58  56  93 CALM      30.07S
FORT BELVOIR   CLEAR     58  57  96 CALM      30.07S
QUANTICO       CLEAR     63  59  87 NW3       30.08S
FREDERICKSBRG* CLEAR     60  59  97 CALM      30.07S
STAFFORD*      CLEAR     56  56 100 CALM      30.11S FOG
WARRENTON      FOG       57  57 100 CALM      30.07S VSB 1/4
CULPEPER*      CLEAR    N/A N/A N/A CALM      30.08R HAZE
MANASSAS*      NOT AVBL
LEESBURG*      CLEAR     61  61 100 CALM      30.07S
WINCHESTER     CLEAR     59  55  88 CALM      30.07S
$$

VAZ048-049-060>072-079>083-310900-
CENTRAL AND SOUTH CENTRAL VIRGINIA...AND NORTH CENTRAL NORTH CAROLINA

CITY           SKY/WX    TMP DP  RH WIND       PRES   REMARKS
RICHMOND       CLEAR     66  61  84 CALM      30.08F
CHESTERFIELD*  SUNNY    N/A N/A N/A CALM      30.09F
HANOVER        CLEAR     60  57  89 CALM      30.09F
TAPPAHANNOCK*  CLEAR     63  59  87 S3        30.09S
CHARLOTTSVILLE CLEAR     59  57  93 W3        30.08F
ORANGE*        CLEAR     57  55  94 CALM      30.09S
LOUISA*        CLEAR     63  59  88 SW3       30.07S
FARMVILLE*     CLEAR     59  57  94 CALM      30.07F FOG
SOUTH HILL*    PTCLDY    63  63 100 CALM      30.15S
ROANOKE RAPIDS NOT AVBL
RALEIGH        MOCLDY    68  63  84 CALM      30.09S
$$

VAZ088>098-310900-
SOUTHEAST VIRGINIA

CITY           SKY/WX    TMP DP  RH WIND       PRES   REMARKS
NORFOLK        CLEAR     66  61  84 SW5       30.09S
VIRGINIA BEACH PTCLDY    65  61  87 CALM      30.09S
NORFOLK NAVAL  PTCLDY    68  62  81 SE3       30.11S
WEST POINT*    CLEAR     69  63  80 SE5       30.11S
NEWPORT NEWS   CLEAR     67  61  81 CALM      30.09F
LANGLEY AFB    CLEAR     65  65 100 SW2       30.09S
FORT EUSTIS    CLEAR     69  65  87 S2        30.08S
WILLIAMSBURG*  CLEAR     70  64  83 S3        30.10S
FRANKLIN*      CLEAR     61 N/A N/A CALM      30.10S
WAKEFIELD      CLEAR     63  60  90 CALM      30.09S FOG
$$

VAZ020-022-025-037-045-310900-
WESTERN AND SOUTHWEST VIRGINIA

CITY           SKY/WX    TMP DP  RH WIND       PRES   REMARKS
STAUNTON*      CLEAR     57  54  90 CALM      30.12S
HOT SPRINGS VA CLEAR     55  49  81 W10       30.20S
LYNCHBURG      CLEAR     58  57  97 CALM      30.12S
DANVILLE       PTCLDY    63  60  90 CALM      30.10S
MARTINSVILLE   CLEAR     56  56  98 CALM      30.13F FOG
ROANOKE        PTCLDY    60  55  83 CALM      30.13F
BLACKSBURG     PTCLDY    55  55 100 CALM        N/A
DUBLIN*        PTCLDY    55  55  98 CALM      30.17F
MARION*        PTCLDY    53  50  92 CALM      30.20F
HILLSVILLE*    PTCLDY    55  53  92 CALM      30.18S
RICHLANDS*     PTSUNNY   59  56  88 CALM      30.17F
WISE*          PTCLDY    59  55  88 CALM      30.17F
ABINGDON*      MOCLDY    59  56  90 CALM      30.15F
$$

MDZ021>025-VAZ099-100-310900-
SOUTHERN MARYLAND AND THE DELMARVA PENINSULA

CITY           SKY/WX    TMP DP  RH WIND       PRES   REMARKS
PATUXENT RIVER CLEAR     65  61  87 SW5       30.07F
BAY BRIDGE APT   N/A     70  59  68 S5        30.07S
LEONARDTOWN    CLEAR     63  59  88 CALM      30.09S
DOVER          CLEAR     61  57  86 S3        30.06S
GEORGETOWN     CLEAR     60  56  86 CALM      30.09F
EASTON         CLEAR     65  60  85 CALM      30.11S
CAMBRIDGE      CLEAR     61  57  88 SE3       30.07S
SALISBURY      CLEAR     59  54  83 CALM      30.09S
OCEAN CITY     CLEAR     56  54  93 CALM      30.09S
WALLOPS ISLAND CLEAR     66  61  84 SW3       30.09F
ACCOMACK*        N/A     61  59  94 SW5       30.09S
$$

NCZ012>017-030>032-310900-
EASTERN NORTH CAROLINA

CITY           SKY/WX    TMP DP  RH WIND       PRES   REMARKS
ELIZABETH CITY PTCLDY    67  62  84 CALM      30.09S
AHOSKIE*       PTCLDY    62  60  93 CALM      30.10S
EDENTON*       PTCLDY    68  63  85 CALM      30.09R
CURRITUCK*     PTCLDY    64  58  82 CALM      30.10S
KILL DEVIL HLS PTCLDY    72  63  71 CALM      30.07S
MANTEO         NOT AVBL
CAPE HATTERAS  MOCLDY    73  64  73 E5        30.07S
GOLDSBORO      MOCLDY    68  68  98 E1        30.06F
WASHINGTON     MOCLDY    66  63  90 CALM      30.08S
GREENVILLE     MOCLDY    64  64 100 CALM      30.10S
NEW BERN       MOCLDY    70  66  87 CALM      30.08S
WILMINGTON     PTCLDY    70  68  93 N5        30.06S
$$

VAZ048-310900-
ELSEWHERE

CITY           SKY/WX    TMP DP  RH WIND       PRES   REMARKS
HARRISBURG PA  MOCLDY    65  62  90 CALM      30.04F
BALTIMORE      PTCLDY    62  56  80 CALM      30.06F
ANNAPOLIS      CLEAR     66  59  78 CALM      30.06F
ANDREWS AFB    CLEAR     63  59  86 S3        30.07S
WILMINGTON DE  CLEAR     65  54  67 CALM      30.08S
PHILADELPHIA   CLEAR     66  56  70 SW5       30.07S
WILDWOOD NJ*   CLEAR     61  55  82 CALM      30.09F
ATLANTIC CITY  CLEAR     58  54  86 CALM      30.08S
HENDERSON NC     N/A     63  61  94 CALM      30.09S FOG
GREENSBORO     MOCLDY    67  62  84 S3        30.09F
ROCKY MOUNT    MOCLDY    67  64  90 CALM      30.09S
FAYETTEVILLE   CLOUDY    71  66  84 E3        30.07F
CHARLOTTE      MOCLDY    68  63  84 CALM      30.08S
$$

VAZ100-310900-
MARINE

STATION/POSITION TIME  TEMP    WIND        PRES    WAVE   SWELL
                       AIR SEA DIR/SP/G            HT/PER HT/PER
                 (UTC) (F)     (DEG/KT/KT) (MB)    (FT/S) (FT/S)
44066 TX TWR #4  0800   72 74  220/  6/  8 1018.8R   3/ 8   3/ 8
CAPE MAY NJ      0800   69 76  180/  3/  5 1018.2F
LEWES DE         0800   65 72  200/  3/  5 1018.3F
15NM E FENWICK I 0800   72 73              1019.2R   2/ 8
OCEAN-CITY-INLET 0800   66 71  270/  4/  5 1018.6S
WACHAPREAGUE VA  0800   66 79   CALM  /  2 1018.9F
THOMAS POINT MD  0800   74 77  190/ 13/ 14 1018.4F
GOOSES REEF MD   0800   73     220/ 14/ 16 1018.5F
COVE POINT MD    0800   69     210/  9/ 11 1018.1F
SOLOMONS ISLAND  0800      79                N/A
BISHOPS HEAD MD  0800   74 76  220/ 10/ 12 1017.9F
PINEY POINT MD   0800          210/ 10/ 13   N/A
POTOMAC MD       0800   72     220/ 14/ 16 1017.7S
CAMBRIDGE MD     0800   66 78  190/  2/  3 1018.0F
LEWISETTA VA     0800   68 77  230/  7/  8 1018.2F
RAPPAHANNOCK LGT 0800          190/ 12/ 13 1019.2F
STINGRAY PT      0800   73     220/  8/ 10 1019.3F
YORK RVR RNG VA  0800   73     210/ 11/ 13 1018.3S
YORKTOWN VA      0800   71 79  210/  6/  7 1018.7R
JAMESTOWN VA     0800   69     220/  8/ 10   N/A
DOMINION TERM VA 0800   72     190/  7/  9 1019.0S
KIPTOPEKE VA     0800      80  200/  8/  9   N/A
CHES BAY BRIDGE  0800   72 72  180/  6/  7 1018.4R
CAPE HENRY VA    0800   69     200/  6/  7 1017.8S
WILLOUBY STN VA  0800          180/  7/  8 1018.2S
S CRANEY ISL VA  0800          160/  5/  7 1019.0S
CAPE HENRY BUOY  0800      76                N/A     2/ 8
1ST LANDING BUOY 0800   73     210/  6/  8 1018.7S
CAPE CHARLES BUO 0800      76                N/A     2/ 8
OFFSHORE WE BUOY 0800      78                N/A     2/ 8
64NM E OF VA BCH 0800   75 78  120/  6/  8 1018.7R   2/ 8   2/ 8
DUCK PIER NC     0800   74 76  120/  9/ 11 1018.0F
44056 DUCK FRF   0800                        N/A     2/ 7
OREGON INLET NC  0800   74 79   90/  5/  7 1018.4F
HATTERAS NC      0800   74 80   70/  4/  5 1018.5F
DIAMOND SHLS NC  0800          VRB 10/ 14  1017.8F   3/ 6   3/ 6
CAPE LOOKOUT NC  0700   79      80/ 12/ 14 1017.6F
$$


USA.gov is the U.S. government's official web portal to all federal, state and local government web resources and services.